• In Kazakhstan
  • List of Countries
  • For 7 days
  • Water Temperature
  • Weather Map
  • News
  • Weather Widgets
  • user-avatar
    Login

    Hourly Weather Shusha

    Today, 17 February, Monday

    Time Temperature Precipitation Wind Pressure Humidity
    00:00 -2°C° 0 mm 0 mps 665 mmHg 83%
    01:00 -1°C° 0.4 mm 1 mps 665 mmHg 87%
    02:00 -1°C° 0.4 mm 1 mps 665 mmHg 90%
    03:00 -2°C° 0.4 mm 1 mps 664 mmHg 94%
    04:00 -2°C° 0.8 mm 1 mps 665 mmHg 95%
    05:00 -4°C° 0.8 mm 2 mps 665 mmHg 95%
    06:00 -4°C° 0.8 mm 2 mps 665 mmHg 96%
    07:00 -4°C° 0.4 mm 2 mps 665 mmHg 94%
    08:00 -4°C° 0.4 mm 2 mps 666 mmHg 92%
    09:00 -2°C° 0.4 mm 1 mps 666 mmHg 90%
    10:00 -2°C° 0.4 mm 1 mps 666 mmHg 91%
    11:00 -1°C° 0.4 mm 1 mps 666 mmHg 91%
    12:00 -1°C° 0.4 mm 1 mps 666 mmHg 92%
    13:00 -1°C° 0.2 mm 1 mps 665 mmHg 90%
    14:00 -3°C° 0.2 mm 2 mps 665 mmHg 89%
    15:00 -2°C° 0.2 mm 2 mps 665 mmHg 87%
    16:00 -1°C° 0.1 mm 1 mps 665 mmHg 89%
    17:00 -2°C° 0.1 mm 1 mps 665 mmHg 91%
    18:00 -2°C° 0.1 mm 1 mps 666 mmHg 93%
    19:00 -2°C° 0 mm 1 mps 666 mmHg 91%
    20:00 -3°C° 0 mm 1 mps 666 mmHg 90%
    21:00 -3°C° 0 mm 1 mps 666 mmHg 88%
    22:00 -3°C° 0 mm 1 mps 666 mmHg 87%
    23:00 -3°C° 0 mm 1 mps 666 mmHg 85%

    Tomorrow, 18 February, Tuesday

    Time Temperature Precipitation Wind Pressure Humidity
    00:00 -3°C° 0 mm 1 mps 666 mmHg 84%
    01:00 -3°C° 0 mm 1 mps 666 mmHg 82%
    02:00 -3°C° 0 mm 1 mps 666 mmHg 81%
    03:00 -3°C° 0 mm 1 mps 666 mmHg 79%
    04:00 -3°C° 0 mm 1 mps 666 mmHg 78%
    05:00 -3°C° 0 mm 1 mps 666 mmHg 77%
    06:00 -3°C° 0 mm 1 mps 666 mmHg 77%
    07:00 -2°C° 0 mm 1 mps 666 mmHg 74%
    08:00 -1°C° 0 mm 1 mps 666 mmHg 71%
    09:00 0°C° 0 mm 1 mps 667 mmHg 69%
    10:00 +1°C° 0 mm 1 mps 667 mmHg 70%
    11:00 +1°C° 0 mm 1 mps 666 mmHg 71%
    12:00 +2°C° 0 mm 1 mps 666 mmHg 72%
    13:00 +2°C° 0 mm 1 mps 666 mmHg 72%
    14:00 +3°C° 0 mm 1 mps 665 mmHg 73%
    15:00 +3°C° 0 mm 1 mps 665 mmHg 74%
    16:00 +2°C° 0 mm 1 mps 664 mmHg 78%
    17:00 0°C° 0 mm 0 mps 664 mmHg 82%
    18:00 -1°C° 0 mm 0 mps 664 mmHg 86%
    19:00 -1°C° 0 mm 0 mps 664 mmHg 84%
    20:00 -1°C° 0 mm 0 mps 664 mmHg 83%
    21:00 0°C° 0 mm 1 mps 664 mmHg 82%
    22:00 0°C° 0 mm 1 mps 664 mmHg 81%
    23:00 0°C° 0 mm 1 mps 663 mmHg 80%

    Day after tomorrow, 19 February, Wednesday

    Time Temperature Precipitation Wind Pressure Humidity
    00:00 -1°C° 0 mm 0 mps 663 mmHg 79%
    01:00 -1°C° 0 mm 0 mps 663 mmHg 77%
    02:00 0°C° 0 mm 1 mps 662 mmHg 76%
    03:00 0°C° 0 mm 1 mps 662 mmHg 75%
    04:00 -1°C° 0 mm 0 mps 662 mmHg 73%
    05:00 -1°C° 0 mm 0 mps 661 mmHg 71%
    06:00 -1°C° 0 mm 0 mps 661 mmHg 69%
    07:00 0°C° 0 mm 0 mps 661 mmHg 67%
    08:00 +2°C° 0 mm 1 mps 661 mmHg 64%
    09:00 +4°C° 0 mm 1 mps 661 mmHg 62%
    10:00 +4°C° 0 mm 1 mps 661 mmHg 61%
    11:00 +5°C° 0 mm 1 mps 661 mmHg 61%
    12:00 +6°C° 0 mm 1 mps 660 mmHg 61%
    13:00 +6°C° 0 mm 1 mps 660 mmHg 64%
    14:00 +6°C° 0 mm 1 mps 659 mmHg 66%
    15:00 +6°C° 0 mm 1 mps 659 mmHg 69%
    16:00 +5°C° 0 mm 1 mps 658 mmHg 73%
    17:00 +4°C° 0 mm 1 mps 658 mmHg 77%
    18:00 +2°C° 0 mm 0 mps 658 mmHg 81%
    19:00 +2°C° 0 mm 0 mps 658 mmHg 80%
    20:00 +2°C° 0 mm 0 mps 657 mmHg 80%
    21:00 +2°C° 0 mm 0 mps 657 mmHg 80%
    22:00 +1°C° 0 mm 0 mps 657 mmHg 80%
    23:00 +1°C° 0 mm 0 mps 657 mmHg 81%

    20 February, Thursday

    Time Temperature Precipitation Wind Pressure Humidity
    00:00 +1°C° 0 mm 0 mps 657 mmHg 81%
    01:00 +1°C° 0 mm 0 mps 657 mmHg 81%
    02:00 +1°C° 0 mm 0 mps 656 mmHg 81%
    03:00 +1°C° 0 mm 0 mps 656 mmHg 81%
    04:00 +1°C° 0 mm 0 mps 656 mmHg 82%
    05:00 +1°C° 0 mm 0 mps 656 mmHg 83%
    06:00 +1°C° 0 mm 0 mps 656 mmHg 83%
    07:00 +1°C° 0.1 mm 0 mps 656 mmHg 84%
    08:00 +2°C° 0.1 mm 0 mps 656 mmHg 85%
    09:00 +3°C° 0.1 mm 1 mps 656 mmHg 86%
    10:00 +3°C° 0.1 mm 1 mps 656 mmHg 88%
    11:00 +3°C° 0.1 mm 1 mps 656 mmHg 91%
    12:00 +3°C° 0.1 mm 1 mps 655 mmHg 93%
    13:00 +3°C° 0 mm 1 mps 655 mmHg 93%
    14:00 +3°C° 0 mm 1 mps 655 mmHg 92%
    15:00 +3°C° 0 mm 1 mps 654 mmHg 92%
    16:00 +3°C° 0 mm 1 mps 654 mmHg 93%
    17:00 +3°C° 0 mm 1 mps 655 mmHg 94%
    18:00 +1°C° 0 mm 0 mps 655 mmHg 94%
    19:00 +1°C° 0 mm 0 mps 655 mmHg 94%
    20:00 +1°C° 0 mm 0 mps 655 mmHg 94%
    21:00 +1°C° 0 mm 0 mps 655 mmHg 94%
    22:00 +1°C° 0 mm 0 mps 655 mmHg 93%
    23:00 +1°C° 0 mm 0 mps 655 mmHg 92%

    21 February, Friday

    Time Temperature Precipitation Wind Pressure Humidity
    00:00 +1°C° 0 mm 0 mps 655 mmHg 91%
    01:00 +1°C° 0 mm 0 mps 654 mmHg 90%
    02:00 +1°C° 0 mm 0 mps 654 mmHg 89%
    03:00 0°C° 0 mm 0 mps 654 mmHg 88%
    04:00 0°C° 0 mm 0 mps 654 mmHg 87%
    05:00 0°C° 0 mm 0 mps 654 mmHg 86%
    06:00 0°C° 0 mm 0 mps 654 mmHg 85%
    07:00 +1°C° 0 mm 0 mps 655 mmHg 82%
    08:00 +3°C° 0 mm 0 mps 656 mmHg 78%
    09:00 +5°C° 0 mm 1 mps 656 mmHg 75%
    16:00 +6°C° 0 mm 1 mps 656 mmHg 78%
    17:00 +5°C° 0 mm 1 mps 656 mmHg 80%
    18:00 +3°C° 0 mm 0 mps 656 mmHg 85%
    19:00 +4°C° 0 mm 1 mps 656 mmHg 84%
    20:00 +3°C° 0 mm 1 mps 656 mmHg 84%
    21:00 +3°C° 0 mm 1 mps 657 mmHg 83%
    22:00 +3°C° 0 mm 1 mps 657 mmHg 82%
    23:00 +3°C° 0 mm 1 mps 657 mmHg 81%

    22 February, Saturday

    Time Temperature Precipitation Wind Pressure Humidity
    00:00 +3°C° 0 mm 1 mps 657 mmHg 80%
    01:00 +3°C° 0 mm 1 mps 657 mmHg 79%
    02:00 +2°C° 0 mm 0 mps 657 mmHg 78%
    03:00 +2°C° 0 mm 0 mps 657 mmHg 77%
    04:00 +2°C° 0 mm 0 mps 657 mmHg 77%
    05:00 +2°C° 0 mm 0 mps 657 mmHg 78%
    06:00 +1°C° 0 mm 0 mps 658 mmHg 78%
    07:00 +2°C° 0 mm 0 mps 658 mmHg 77%
    08:00 +4°C° 0 mm 1 mps 658 mmHg 75%
    09:00 +5°C° 0 mm 1 mps 659 mmHg 74%
    10:00 +5°C° 0 mm 1 mps 659 mmHg 75%
    11:00 +6°C° 0 mm 1 mps 659 mmHg 76%
    12:00 +5°C° 0 mm 2 mps 659 mmHg 77%
    13:00 +5°C° 0 mm 2 mps 658 mmHg 80%
    14:00 +5°C° 0 mm 2 mps 658 mmHg 82%
    15:00 +4°C° 0 mm 2 mps 657 mmHg 85%
    16:00 +5°C° 0 mm 1 mps 657 mmHg 88%
    17:00 +4°C° 0 mm 1 mps 657 mmHg 92%
    18:00 +4°C° 0 mm 1 mps 657 mmHg 96%
    19:00 +3°C° 0 mm 1 mps 658 mmHg 96%
    20:00 +3°C° 0 mm 1 mps 658 mmHg 96%
    21:00 +2°C° 0 mm 0 mps 658 mmHg 96%
    22:00 +2°C° 0 mm 0 mps 658 mmHg 96%
    23:00 +2°C° 0 mm 0 mps 658 mmHg 96%
    Show more